Location: Górki Wielkie
(49.7717°N, 18.8528°E)
Time: 14:05:16
(UTC+02:00)

ISS - Visible Passes

Search period start: 22 October 2018 00:00
Search period end: 31 October 2018 23:00
Orbit: 402 x 408 km, 51.6° (Epoch: 22 October)

Date Brightness Start Highest point End Pass type
(mag) Time Alt. Az. Time Alt. Az. Time Alt. Az.
27 Oct -0.9 06:15:52 10° S 06:18:02 16° SE 06:20:11 10° E visible
29 Oct -2.1 05:07:14 10° SSW 05:10:09 30° SSE 05:13:06 10° E visible
30 Oct -1.6 04:17:23 18° SSE 04:18:16 19° SE 04:20:43 10° E visible
30 Oct -3.7 05:51:06 10° WSW 05:54:23 79° SSE 05:57:41 10° ENE visible
31 Oct -3.3 05:00:31 22° SW 05:02:21 54° SSE 05:05:35 10° ENE visible
